EHRD - LEAL

Guest
Details From EHRD - Rotterdam
To LEAL - Alicante
Flight Number -
Tags Generated
Created
Modified
Stats Distance 847 nm / 1,569 km
Max Altitude 0 ft / 0 m
Waypoints 5
Social Downloads 3
Likes 0
Share VATSIM

Download

Looking for another format? Having issues loading an existing format? Contact us
Advertisement - Login to hide

Notes

Generated

Route

EHRD GIPEX ASPET R2305 LEAL

ID Type Via Altitude Latitude Longitude Leg Dist Tot Dist Heading (true) Name
O EHRD APT - 0 ft / 0 m 51.95209˚ 4.42824˚ - 0 nm - -
GIPEX FIX - 0 ft / 0 m 47.75750˚ 2.62333˚ 261 nm 261 nm 196° / 195° -
ASPET FIX - 0 ft / 0 m 43.00000˚ 0.97972˚ 293 nm 555 nm 194° / 193° -
R2305 FIX - 0 ft / 0 m 38.28452˚ -0.57500˚ 291 nm 847 nm 195° / 194° -
O LEAL APT - 0 ft / 0 m 38.28452˚ -0.57500˚ 0 nm 847 nm 270° / 270° -

Altitude Profile

Weather

Temperature
Clouds and Precipitation
Forecast for 2017-01-16 18:00 UTC. Updated 2 hours ago
Winds

EHRD

Details ICAO EHRD (RTM)
Name Rotterdam The Hague
Region Netherlands
Timezone Europe/Amsterdam (UTC+1.0)
Stats Elevation -15 ft / -5 m (AMSL)
Location 51.957468° 4.441662°
Runways 1
Magnetic Variation 0.919° E

METAR

EHRD 161855Z AUTO 11006KT 9999 OVC008 M02/M04 Q1031 NOSIG

Decode

TAF

TAF EHRD 161706Z 1618/1724 09005KT 6000 SCT004 BKN005 PROB40 TEMPO 1619/1709 2000 BR SCT002 BKN003 PROB30 TEMPO 1623/1709 0600 FZFG SCT001 BKN002 BECMG 1715/1718 SCT007 BECMG 1718/1721 2500 MIFG PROB40 1718/1724 0600 FZFG BKN002

Decode

Departure Runways

ID Width Length Bearing (true) Bearing (mag) Surface Threshold Offset Overrun Length
06 148 ft / 45 m 7,201 ft / 2,195 m 56.93° 56.01° Asphalt 656 ft / 200 m 0 ft / 0 m
24 148 ft / 45 m 7,201 ft / 2,195 m 236.95° 236.03° Asphalt 656 ft / 200 m 0 ft / 0 m

LEAL

Details ICAO LEAL (ALC)
Name Alicante
Region Spain
Timezone Europe/Madrid (UTC+1.0)
Stats Elevation 141 ft / 43 m (AMSL)
Location 38.282169° -0.558157°
Runways 1
Magnetic Variation 0.083° E

METAR

LEAL 161900Z 27008KT 9999 FEW050 15/02 Q1016 NOSIG

Decode

TAF

TAF TAF LEAL 161700Z 1618/1718 31012KT 9999 FEW040 TX14/1714Z TN04/1707Z PROB40 TEMPO 1702/1708 33016G30KT PROB30 TEMPO 1707/1712 SHRA FEW025TCU BKN030 BECMG 1707/1710 04012KT

Decode

Destination Runways

ID Width Length Bearing (true) Bearing (mag) Surface Threshold Offset Overrun Length
10 148 ft / 45 m 9,799 ft / 2,987 m 100.07° 99.99° Asphalt 0 ft / 0 m 164 ft / 50 m
28 148 ft / 45 m 9,799 ft / 2,987 m 280.09° 280.01° Asphalt 0 ft / 0 m 197 ft / 60 m

Approach Navaids

Runway Type Ident Frequency Range Bearing (true) Bearing (mag) Slope Elevation
10 Localiser IAT 110.30 MHz 18 nm / 33 km 100.09° 100.01° - 29 ft / 9 m (AMSL)
10 Glidescope IAT 110.30 MHz 10 nm / 19 km 100.09° 100.01° 3.00° 129 ft / 39 m (AMSL)
10 DME IAT 110.30 MHz 18 nm / 33 km - - - 129 ft / 39 m (AMSL)

Popular Alternatives